Theta_e
278 277 277 278 278 278 278 278 279 279 279 279 278 278 277 277 274 273 273 274 275 277 279 278 279 282 282 283 284 284 284 286 287 285 285 285 285 288 291 293 294 294 294 294 294 294 294 295 296 296 297 298 298 299 299 300 301 301 302 303 304 305 306 307 308 309 309 309 310 311 312 312 312 313
277 278 277 277 278 278 277 278 278 278 278 277 278 278 278 277 275 274 273 274 276 276 278 278 279 281 281 282 283 283 283 286 286 284 284 284 284 289 290 290 291 292 294 293 293 294 294 294 295 295 295 296 297 298 298 299 299 301 302 302 303 303 304 306 306 307 308 308 309 310 311 311 312 313
277 276 276 276 276 277 277 277 277 277 278 277 277 276 278 277 276 275 275 273 276 278 276 278 279 279 280 281 281 282 282 284 285 283 282 283 286 287 286 287 288 290 291 291 292 293 294 294 294 294 295 296 296 297 298 298 299 299 300 302 302 303 304 304 304 305 306 306 307 308 309 310 312 313
277 275 275 275 276 276 275 276 276 276 276 277 277 277 277 276 276 276 275 274 273 277 276 277 277 278 279 279 279 279 280 282 283 281 281 282 285 282 282 285 287 288 289 290 292 292 293 293 293 294 295 296 297 297 297 298 298 298 299 301 302 302 302 303 304 304 305 306 307 307 307 308 309 310
275 275 274 274 275 275 274 275 275 275 275 275 276 276 275 275 275 275 273 272 272 275 277 276 276 277 278 277 278 277 278 278 279 281 280 280 280 281 281 282 284 285 287 288 289 291 292 293 294 294 294 295 295 296 296 297 297 297 298 299 299 301 301 302 302 302 303 305 305 306 307 307 307 309
276 274 273 274 274 275 274 274 274 274 274 274 274 274 274 273 274 274 273 273 272 272 275 275 276 275 277 275 277 275 276 276 277 277 278 279 279 279 280 280 281 285 286 288 290 291 292 293 294 294 293 294 295 296 296 295 295 295 296 296 297 298 299 300 301 301 301 303 303 304 305 305 306 307
273 273 273 273 273 275 273 273 273 274 273 273 273 273 273 273 273 274 274 273 272 272 272 274 273 274 274 274 274 275 276 276 276 276 276 277 278 279 279 280 281 284 286 287 288 289 290 291 291 292 292 292 293 293 294 294 294 295 295 296 296 296 297 298 299 299 300 302 302 303 304 304 305 305
273 272 272 272 272 273 272 272 272 273 272 272 272 272 272 272 272 273 273 273 272 271 270 272 272 273 272 273 274 275 275 275 275 276 276 277 277 277 279 279 278 281 284 285 286 286 287 287 287 288 290 291 291 292 292 292 293 293 293 293 293 294 295 296 297 298 299 300 301 302 302 303 304 304
272 272 272 272 272 272 272 272 272 272 271 271 271 271 272 272 272 272 272 272 272 271 270 270 272 272 272 273 273 274 273 274 274 275 274 275 275 276 277 277 278 280 282 282 283 283 284 284 285 286 287 288 289 290 291 292 292 292 292 293 293 294 294 294 295 296 296 297 298 299 300 302 303 303
272 272 272 272 272 272 272 272 271 271 271 271 271 271 271 271 272 271 271 272 271 271 270 270 270 271 271 272 272 273 273 272 272 272 273 274 275 274 274 275 277 278 278 277 278 280 281 283 285 286 286 287 288 288 289 289 289 288 289 288 290 293 293 294 294 295 295 295 296 297 299 300 301 302
273 272 272 272 272 272 272 271 271 271 271 271 271 271 271 271 271 271 271 271 271 271 270 270 270 270 272 272 270 272 273 273 272 271 271 271 273 274 274 274 275 276 276 278 280 281 281 282 282 283 285 285 285 286 286 287 287 286 286 287 288 289 291 293 294 294 294 295 296 297 297 298 300 301
272 273 272 272 272 272 272 271 272 272 271 272 271 272 272 272 272 271 271 271 270 270 269 269 269 270 270 271 272 273 273 271 271 272 271 270 271 272 274 274 274 275 275 275 276 279 279 280 281 282 282 283 283 284 284 284 284 284 286 287 288 289 290 290 292 294 294 295 295 296 296 297 297 299
272 272 273 272 272 274 276 277 276 276 276 273 270 271 273 272 272 271 271 270 270 269 269 268 270 269 270 270 270 270 271 270 270 272 272 271 272 273 273 274 275 275 274 275 275 276 277 278 278 278 277 278 280 280 282 282 283 284 286 287 288 289 290 290 290 290 292 293 294 295 295 295 295 296
272 272 272 273 276 276 275 275 276 276 276 276 275 274 273 273 272 271 270 270 270 269 269 269 269 269 269 270 271 271 272 273 273 272 272 271 272 273 273 274 275 276 275 275 275 276 278 277 277 277 276 277 279 278 279 279 282 284 287 288 288 288 289 289 290 290 290 291 292 293 293 293 294 295
271 271 272 271 272 273 273 273 274 275 275 276 276 276 276 276 274 272 271 271 271 270 269 270 270 270 270 271 272 272 272 273 272 272 272 272 272 271 270 269 273 277 276 275 275 275 277 276 275 275 276 277 277 278 279 283 285 285 286 287 287 288 289 289 290 290 290 291 291 292 292 293 293 294
271 270 270 270 271 271 271 272 271 272 274 275 275 276 276 276 276 276 274 272 271 271 270 270 270 271 270 271 272 272 273 272 273 273 273 272 272 271 271 271 271 275 277 275 274 273 275 276 275 274 275 276 277 278 281 283 284 284 285 286 286 287 287 288 289 290 290 290 290 291 292 292 293 293
271 270 269 269 270 270 273 272 270 270 270 273 275 275 276 276 276 277 277 278 275 274 272 271 271 271 271 271 272 273 273 274 272 273 272 273 273 273 272 272 273 275 278 275 273 271 274 274 274 273 275 276 276 277 280 282 283 284 285 285 286 286 287 287 288 289 290 290 291 291 291 292 292 292
270 269 269 269 269 269 269 270 270 270 270 271 272 272 272 273 274 276 277 278 278 277 274 273 272 273 274 272 273 274 275 273 272 272 272 273 273 273 273 275 275 277 277 274 272 271 272 274 273 272 274 275 276 276 279 282 283 284 284 285 285 285 286 287 288 288 288 289 289 290 291 291 291 292
269 269 270 269 269 269 269 270 272 272 272 273 273 273 273 273 274 274 274 274 274 274 274 274 274 274 275 274 275 275 275 275 275 275 274 274 274 275 276 275 275 274 275 275 273 269 272 274 273 273 274 275 275 275 279 281 282 283 283 284 284 285 286 287 287 288 288 289 289 290 289 290 290 291
270 270 270 269 269 269 270 272 275 275 275 274 274 273 274 274 275 275 277 279 279 278 277 277 276 276 277 279 278 279 278 278 278 278 277 276 275 273 271 270 272 272 275 275 273 271 271 274 272 273 274 275 274 275 275 279 281 282 283 284 284 284 285 285 285 286 287 287 288 288 289 290 290 290
271 270 270 270 271 271 271 274 276 277 278 275 275 274 273 274 274 275 276 279 279 279 279 279 280 280 281 281 281 281 281 278 277 275 272 271 273 271 270 271 272 271 273 274 274 272 271 273 273 272 274 273 274 274 274 275 279 281 282 282 282 282 283 283 283 284 285 285 286 286 288 289 290 290
270 270 273 273 272 272 272 275 277 279 277 275 274 273 273 273 273 273 274 274 274 277 278 278 278 279 279 279 279 278 278 278 277 272 270 272 272 271 271 269 270 271 272 273 275 272 271 273 273 271 272 273 273 273 274 275 276 278 278 280 281 281 282 282 283 283 284 284 284 285 286 287 288 287
271 271 273 274 274 274 275 278 278 278 277 274 274 273 272 271 270 271 272 272 272 273 273 272 272 272 273 272 271 272 276 277 276 273 272 272 271 270 270 270 270 269 270 273 275 271 271 271 272 271 270 269 272 274 273 273 273 274 274 275 275 279 280 281 281 282 282 282 283 284 285 286 286 285
271 271 271 273 276 277 277 278 278 277 278 275 274 273 271 269 268 271 272 273 272 270 269 268 268 268 269 269 270 270 271 272 272 273 273 273 272 271 270 270 270 268 269 272 275 271 271 272 270 273 270 267 266 270 272 272 272 273 273 273 273 277 278 278 278 279 280 281 282 282 283 284 285 284
270 271 272 272 275 276 277 277 277 277 277 277 274 272 269 270 272 275 271 269 270 267 266 266 266 266 267 267 268 268 269 270 271 271 272 272 272 271 270 269 269 269 270 272 276 272 270 271 269 270 269 269 269 268 270 271 272 272 272 273 272 274 274 274 275 274 278 279 281 282 282 282 283 284
271 271 272 272 274 275 276 276 277 277 277 276 272 270 274 275 275 272 268 265 264 264 264 264 264 265 265 266 267 268 268 269 270 271 271 272 272 272 271 270 269 268 269 272 276 272 270 269 269 268 269 268 268 269 268 269 271 272 272 272 272 273 273 273 273 274 274 275 275 277 279 282 283 283
271 272 273 273 274 276 276 276 276 276 276 273 271 274 274 274 274 270 263 264 263 262 263 263 263 264 264 264 265 266 267 268 268 268 269 269 270 270 271 271 271 270 271 272 273 273 271 270 271 269 268 269 267 268 268 267 268 271 271 271 272 272 273 273 273 273 274 274 275 279 280 280 281 282
272 273 272 272 275 276 276 275 275 275 273 271 273 273 273 273 270 264 262 261 261 262 262 262 262 262 264 264 264 265 266 266 267 267 268 269 269 270 270 271 272 272 272 273 273 273 272 271 271 271 271 269 267 267 266 270 270 270 269 272 272 272 273 273 273 273 274 274 274 274 274 274 276 277
273 274 276 276 275 275 274 274 273 271 270 272 272 273 272 269 261 261 260 260 261 261 261 262 262 263 264 264 265 266 266 266 267 267 267 268 269 270 270 271 272 272 273 273 273 274 273 272 271 272 271 271 269 269 269 268 269 270 271 270 269 272 273 273 273 273 273 274 274 274 274 274 275 276
276 276 276 276 274 273 272 269 266 265 266 270 271 270 268 261 261 259 260 260 260 260 262 262 262 262 263 264 265 265 266 265 265 266 266 267 267 268 268 268 269 270 271 273 273 274 274 273 273 272 271 271 271 270 270 269 269 270 271 270 271 273 273 273 273 273 274 274 275 275 275 275 275 276
272 273 272 271 272 272 272 271 270 269 268 265 264 262 260 260 260 261 259 260 260 261 261 261 262 263 263 264 264 263 264 264 265 267 266 266 266 267 267 267 266 267 269 271 272 273 274 274 274 274 271 271 271 271 271 271 270 270 271 271 271 268 271 273 273 273 274 274 275 275 275 275 275 276
270 268 270 269 264 262 261 262 259 259 259 260 261 260 259 260 261 263 265 265 262 261 262 262 263 262 262 261 262 263 264 264 265 266 266 265 265 266 266 265 264 266 267 268 270 272 273 273 274 274 273 272 271 272 272 271 270 270 270 271 271 272 273 272 272 273 275 275 274 274 275 274 274 275
268 267 265 261 260 258 259 259 258 258 258 258 259 258 258 258 259 259 257 258 259 260 260 261 261 261 261 262 263 263 263 263 264 265 264 265 265 265 265 264 264 265 265 265 267 268 270 272 273 273 273 274 274 273 272 270 271 271 270 271 271 271 272 273 273 273 275 274 273 274 274 275 275 275
266 265 260 258 258 258 257 257 257 258 256 257 257 256 262 260 258 259 258 258 259 260 260 260 260 261 262 262 263 263 263 263 263 265 266 263 264 263 263 263 264 265 265 265 266 268 269 269 270 271 272 273 274 274 273 271 270 271 271 271 271 271 273 274 273 274 274 274 273 273 273 274 275 276
265 263 260 258 257 258 257 257 258 257 257 257 257 257 257 257 258 260 258 258 259 260 260 260 261 261 262 262 263 262 263 263 263 263 263 263 263 263 263 263 263 264 265 265 266 267 267 268 268 268 268 270 270 273 277 274 271 271 272 272 273 273 272 273 273 274 275 275 275 273 273 274 274 275
264 262 260 257 257 257 257 258 258 257 256 256 256 256 256 257 257 258 258 260 258 259 259 260 261 262 262 262 263 263 263 263 263 262 262 263 263 263 263 263 264 264 265 265 266 267 267 267 267 266 266 266 267 267 269 277 277 274 272 272 273 273 274 274 275 276 275 275 275 274 272 272 273 275
263 260 259 257 256 256 258 257 255 256 255 256 256 255 256 256 257 257 259 260 259 259 260 261 261 262 262 263 263 263 263 263 262 263 262 263 263 263 262 263 264 264 264 265 266 266 267 266 267 267 266 265 265 265 268 272 275 277 274 273 273 275 275 275 276 275 275 275 275 275 274 274 273 275
262 259 258 257 257 256 256 256 256 256 256 255 255 256 256 257 257 258 258 258 258 258 259 260 261 262 262 262 262 262 262 262 262 262 262 262 262 262 263 263 263 264 264 265 266 266 267 267 267 267 267 265 265 265 266 269 271 273 277 276 274 275 276 275 275 275 275 276 276 277 277 275 275 276
260 257 257 257 257 256 256 256 256 256 254 254 255 255 255 255 255 256 256 257 258 258 258 259 260 261 262 262 262 262 262 262 262 262 262 262 263 263 263 263 264 264 264 264 265 266 266 266 267 267 267 266 266 267 268 268 269 272 276 279 277 276 277 276 276 276 276 276 277 278 278 279 279 281
259 257 256 255 256 255 255 255 255 255 255 255 254 254 254 256 255 255 256 257 257 258 258 260 261 262 261 262 262 263 262 262 262 262 262 262 263 264 264 264 263 264 263 264 264 265 265 266 267 267 268 269 270 271 271 272 272 274 275 278 280 279 277 277 276 276 276 277 277 276 276 278 277 278
256 256 256 256 255 255 255 255 254 254 254 254 254 257 256 254 255 255 255 257 258 258 258 258 259 260 261 261 262 263 262 262 262 262 262 263 263 264 264 264 263 264 263 263 264 264 265 267 269 272 271 271 271 272 271 270 270 272 272 273 278 280 279 279 277 276 276 277 276 274 273 273 275 276
256 256 255 253 254 254 253 254 253 253 254 253 253 254 253 254 255 259 259 259 257 257 257 257 258 260 261 261 262 263 262 262 262 262 263 263 262 263 263 263 262 263 263 262 263 264 266 268 270 270 270 270 270 268 267 268 268 270 271 273 275 278 277 277 278 279 278 277 276 274 273 273 274 274
255 253 254 254 253 253 253 254 253 253 254 253 253 253 252 254 253 254 254 255 255 256 256 257 258 258 260 261 262 263 262 262 262 262 262 262 262 262 262 262 263 263 264 264 265 266 266 267 268 268 268 268 268 268 267 268 269 269 271 272 273 273 273 275 276 277 279 280 280 278 277 275 273 271
253 253 253 253 253 253 253 253 254 253 253 253 253 252 253 253 253 254 254 254 255 255 256 256 257 258 259 260 261 262 262 262 262 262 261 261 262 262 262 262 263 263 264 264 264 264 265 266 267 268 266 266 267 267 266 267 267 269 270 270 271 271 270 271 272 274 275 276 278 279 279 279 279 278
253 253 252 252 253 252 253 252 253 252 252 253 252 253 253 253 254 254 254 254 254 255 255 256 257 258 259 260 260 261 262 264 262 261 261 261 261 262 262 262 263 263 263 263 263 263 265 265 266 267 266 266 267 267 267 267 267 269 268 268 268 269 269 270 269 269 269 270 273 277 278 278 278 278
Wind_Speed
3 4 4 4 5 5 4 4 5 5 4 4 5 5 4 5 7 8 10 12 8 7 6 7 3 5 8 10 8 10 8 11 14 11 11 10 10 12 22 24 24 25 25 26 27 27 26 26 26 26 26 26 26 26 26 25 24 23 22 23 23 23 22 21 21 22 21 21 21 20 21 20 21 21
3 3 3 4 4 4 4 4 4 4 5 5 5 4 5 5 6 6 9 13 10 9 7 3 7 9 8 8 9 7 10 13 15 10 10 10 9 18 24 24 25 26 27 27 27 27 26 25 26 27 27 27 27 27 27 27 26 25 25 25 25 24 23 22 21 21 21 21 21 22 21 21 21 21
3 3 4 4 3 4 4 4 5 4 5 6 5 5 5 5 4 6 6 11 10 4 10 8 4 9 11 7 10 10 8 9 14 11 12 11 16 22 16 22 24 25 26 25 25 26 26 27 27 27 27 28 29 29 28 28 28 27 27 26 25 24 23 22 22 21 21 21 22 21 21 21 21 22
3 3 4 4 4 4 3 4 5 5 5 4 5 5 5 4 4 4 6 8 15 13 10 11 6 6 10 10 10 11 8 9 16 13 12 13 17 12 11 14 22 24 25 26 26 26 27 27 27 27 27 27 27 27 28 28 28 28 27 26 25 24 23 22 22 22 21 21 21 21 21 21 21 22
3 3 4 4 4 3 4 4 5 5 5 5 5 4 5 6 4 5 5 8 13 14 9 7 6 6 11 9 7 11 11 10 11 12 11 11 11 11 11 11 16 23 25 26 26 26 26 26 26 27 27 26 26 26 27 27 27 28 27 27 26 25 24 24 23 22 22 22 21 22 22 22 21 21
3 3 3 4 4 3 4 4 5 5 5 4 4 5 5 5 5 3 5 7 9 15 15 11 5 5 7 11 7 9 13 11 10 13 12 10 10 10 11 11 11 20 24 24 24 24 25 25 25 25 26 25 24 25 26 26 27 27 27 27 26 26 26 25 24 23 22 22 22 22 21 21 21 21
3 3 3 4 3 3 4 4 4 4 4 3 4 5 4 5 5 4 4 5 9 12 15 12 10 7 7 10 12 10 9 10 11 11 10 10 10 10 11 11 9 16 22 25 26 27 26 26 26 26 26 26 26 26 26 26 26 27 26 26 26 27 26 25 24 24 23 23 23 22 22 22 22 22
3 3 3 4 3 4 4 4 5 4 3 4 4 5 5 5 5 4 4 4 7 10 13 14 9 9 9 10 10 9 9 9 10 9 11 10 11 11 10 9 10 15 25 26 25 25 26 28 29 28 27 27 27 27 27 28 28 28 29 28 28 28 27 26 25 24 23 23 23 23 23 22 22 22
3 3 3 4 4 4 5 5 4 4 4 4 5 6 5 5 5 5 5 6 6 9 12 14 10 8 8 8 10 8 10 10 9 10 11 10 10 11 9 9 11 17 22 21 23 25 26 26 27 28 28 27 27 27 26 27 28 29 29 27 27 27 28 27 26 25 24 24 23 23 24 23 23 22
3 3 3 3 3 4 5 5 4 3 4 5 6 5 5 5 5 6 6 6 7 8 10 11 14 9 8 11 9 8 9 10 12 11 10 8 8 9 10 9 8 7 8 9 11 15 17 20 24 24 24 26 26 26 27 27 27 27 25 27 28 26 24 25 26 26 26 25 24 24 23 23 23 23
4 3 3 3 4 4 4 5 3 4 5 5 5 5 6 5 6 7 7 8 9 10 11 12 11 12 10 9 13 10 7 9 9 12 12 11 7 8 9 10 7 7 9 12 18 17 17 21 18 21 26 28 28 28 28 29 28 26 27 27 27 27 27 26 24 23 24 24 24 23 23 23 23 23
3 4 4 4 4 4 4 3 4 4 6 5 5 5 6 8 8 8 8 9 9 10 11 11 12 11 12 11 10 11 10 8 8 6 9 13 13 11 8 7 10 10 10 10 8 9 12 13 17 22 22 23 27 29 27 27 28 27 25 25 26 27 26 26 27 25 22 22 23 23 23 22 22 23
4 4 4 4 3 4 8 13 12 11 10 7 5 5 5 8 9 9 8 8 8 10 10 12 11 13 13 11 12 13 11 11 12 10 9 12 11 11 10 9 7 9 11 10 10 9 8 10 9 9 10 12 19 20 24 20 23 25 25 26 26 26 26 25 25 27 26 24 22 21 21 20 20 20
4 4 4 4 9 12 13 13 14 13 13 13 10 8 8 7 7 7 7 7 7 9 11 10 12 13 14 12 13 14 15 14 12 12 11 12 12 13 14 11 7 8 10 11 11 9 6 9 10 8 10 9 11 11 12 10 15 20 25 26 26 27 26 26 25 24 26 28 27 26 25 23 22 21
4 4 4 3 5 7 8 8 13 13 14 14 15 16 15 13 10 8 8 8 8 9 9 8 10 11 15 16 13 14 14 11 15 12 11 13 14 12 13 15 9 3 10 11 11 10 7 10 13 11 9 9 10 11 11 20 24 25 25 26 25 26 26 26 25 25 26 26 26 26 26 26 25 23
4 4 4 3 3 4 5 7 5 9 13 15 15 16 16 15 16 15 11 10 9 9 10 11 11 11 14 14 12 11 13 14 11 12 13 14 12 14 14 11 12 11 8 10 12 15 8 9 10 11 9 9 8 11 19 26 27 27 26 25 26 26 26 26 25 24 24 26 26 26 26 26 26 25
4 4 5 4 4 4 10 8 6 6 7 11 15 17 17 18 19 19 21 20 15 12 13 14 15 12 13 15 12 12 14 13 15 13 12 12 13 14 13 14 13 8 9 12 12 14 10 9 10 10 8 8 8 9 15 25 26 26 25 25 24 25 25 25 25 25 24 24 24 25 25 26 26 25
4 4 4 5 5 4 4 5 7 7 8 9 9 10 10 10 14 19 22 23 25 21 16 16 17 16 12 12 14 15 15 16 15 14 14 12 14 12 13 13 12 11 7 10 13 16 10 8 9 10 8 7 8 8 16 24 24 25 26 26 25 25 26 25 24 24 24 24 24 24 25 26 26 26
4 4 5 5 6 5 5 5 9 9 9 9 10 11 11 11 10 9 9 11 12 13 12 13 15 17 14 14 16 15 15 15 14 13 16 16 14 13 11 11 9 9 6 11 10 14 10 7 10 9 9 8 9 9 13 20 23 25 26 26 24 24 23 23 23 23 23 23 23 25 26 27 27 26
4 4 5 5 6 5 6 10 16 14 12 11 12 13 11 9 9 10 13 20 19 15 13 12 12 12 15 21 19 17 14 12 10 11 11 9 9 12 12 11 8 9 8 9 9 10 10 8 10 11 8 8 9 8 7 15 22 23 24 24 24 25 26 26 26 25 25 25 25 25 25 26 26 26
5 4 4 5 6 7 7 12 16 17 17 10 10 10 13 14 14 12 9 15 21 24 27 28 30 31 31 31 30 30 32 24 20 15 14 13 12 12 11 8 6 7 7 6 6 9 12 9 10 9 8 8 9 9 9 8 15 21 21 24 27 29 28 27 26 27 26 25 25 25 26 25 21 20
5 6 12 10 9 9 9 14 17 17 14 10 11 12 13 13 11 11 10 9 12 22 25 25 25 25 26 28 29 29 29 29 22 13 14 13 11 12 10 12 9 9 8 9 6 8 9 10 9 10 8 9 7 8 7 9 9 15 18 24 25 25 26 26 26 26 26 26 24 24 25 26 24 13
5 6 7 12 11 10 11 16 15 18 15 10 10 10 12 12 13 11 12 12 13 9 10 12 14 16 18 16 14 15 26 26 21 13 12 10 10 12 11 11 10 10 7 7 6 9 10 11 10 9 9 8 6 4 6 7 9 10 9 11 14 23 25 26 26 26 26 26 26 24 24 25 23 12
5 6 6 8 12 14 14 14 17 18 18 12 10 8 8 10 13 10 11 10 12 13 12 13 13 13 13 11 12 11 12 13 12 12 11 10 9 9 9 9 9 10 9 9 9 10 9 8 10 6 6 9 9 7 7 8 8 9 9 10 10 17 20 21 19 25 26 25 26 26 26 25 22 12
6 5 5 5 10 12 13 16 18 18 19 18 10 7 7 8 13 16 10 12 16 11 11 11 11 10 10 10 9 9 9 9 9 10 12 10 10 10 10 10 9 9 10 10 15 9 9 8 11 9 9 6 8 9 8 8 10 8 8 9 10 10 10 11 10 13 17 24 25 26 24 23 24 18
6 4 5 5 6 11 16 18 17 19 18 19 8 8 15 18 19 12 8 9 8 8 9 9 9 9 9 9 9 9 10 9 10 10 11 12 11 10 11 11 11 11 11 12 19 11 10 10 10 9 8 8 9 8 10 9 9 8 8 8 9 10 10 10 10 11 12 11 12 15 19 26 25 25
5 7 6 3 8 15 17 16 17 18 18 13 9 16 16 16 17 11 6 8 7 8 8 9 9 9 9 9 10 11 11 11 12 12 12 13 14 13 12 13 12 13 13 13 13 12 11 11 10 9 9 8 10 10 10 9 10 10 11 10 9 9 9 9 11 11 11 12 12 23 24 23 24 25
8 6 4 5 13 14 15 17 17 16 14 10 16 15 16 16 12 6 7 5 7 8 8 8 8 8 8 8 9 10 11 12 13 13 13 13 13 13 11 12 13 12 13 13 13 13 12 12 11 10 11 11 11 10 10 9 11 10 13 12 10 10 9 9 10 10 10 11 11 11 10 11 10 12
5 8 13 14 12 13 15 17 17 12 12 15 14 14 14 11 4 6 5 6 6 7 8 8 8 8 8 9 10 12 13 13 12 11 11 11 11 10 11 11 11 11 9 9 10 11 11 11 11 11 10 10 10 10 9 9 10 12 12 11 12 11 11 10 10 11 11 10 10 11 10 10 11 10
16 15 14 14 13 12 12 8 4 3 5 12 13 13 11 4 5 4 5 5 6 7 8 8 9 8 8 9 9 10 10 9 9 9 10 10 9 9 10 10 10 8 10 10 10 11 11 11 10 11 11 10 10 11 10 11 11 11 11 11 12 13 12 10 9 9 9 10 10 10 11 11 11 9
8 8 7 3 8 9 14 13 11 9 9 8 6 5 4 4 4 5 4 5 6 7 7 8 7 8 8 8 9 9 9 9 8 8 9 10 10 10 9 9 10 8 8 8 9 10 10 10 11 11 11 11 10 10 11 10 12 11 11 10 10 10 13 12 11 10 10 11 10 11 11 11 11 10
5 3 2 4 2 2 3 5 4 4 4 6 5 5 4 5 6 6 9 9 5 6 6 7 7 8 8 8 9 9 8 8 8 8 8 9 10 9 9 9 9 10 10 9 8 8 11 10 10 10 11 11 12 12 11 10 12 12 11 12 11 11 11 11 11 12 12 10 9 10 10 10 11 11
3 3 2 2 3 2 3 4 5 5 5 5 5 4 5 5 4 5 4 5 6 6 5 6 7 9 8 9 8 8 9 9 9 8 8 8 8 10 8 8 9 10 12 12 9 9 7 9 10 13 12 11 12 13 12 12 12 11 11 12 11 11 11 11 10 11 12 10 11 10 10 10 10 10
4 5 4 3 3 4 4 5 5 6 5 6 6 5 5 5 5 5 4 5 6 6 6 6 7 8 8 8 8 8 9 10 8 8 10 9 9 9 9 10 9 9 10 11 10 9 10 9 10 10 10 11 11 12 12 12 13 12 11 11 10 11 12 11 11 11 10 9 10 11 11 11 9 9
5 4 3 3 2 4 6 5 6 5 5 4 5 6 5 4 5 6 5 6 6 7 7 7 6 7 7 8 8 9 9 10 10 9 7 7 8 8 9 9 10 9 9 9 11 10 9 10 10 11 10 9 9 8 13 15 11 12 11 10 9 10 11 10 10 10 10 9 8 10 10 11 10 9
5 4 4 4 4 5 5 6 5 4 5 5 5 5 5 5 4 4 5 5 5 7 7 7 7 6 7 7 8 8 8 10 9 9 10 9 9 9 8 8 9 10 8 9 9 9 9 10 10 11 11 12 11 12 10 8 11 9 9 9 10 10 11 11 11 10 9 8 8 8 9 11 12 9
5 4 5 5 6 5 7 6 5 6 4 6 5 5 5 6 5 4 5 6 6 6 6 7 7 7 7 7 8 8 8 9 9 10 10 9 9 9 10 10 10 9 10 8 9 9 8 9 9 9 11 12 11 13 13 10 16 15 7 10 11 12 13 12 11 12 9 7 8 7 9 9 11 12
5 5 5 6 6 6 6 6 5 5 6 5 5 5 5 5 5 5 5 5 6 5 6 6 7 7 7 7 7 8 8 8 8 9 9 9 10 10 10 10 11 10 10 10 8 8 8 8 9 9 10 10 11 13 14 14 13 15 10 10 11 14 14 12 11 10 10 7 7 8 7 9 11 11
5 6 6 6 7 6 6 6 5 6 5 5 5 6 6 5 5 5 4 6 6 6 6 6 6 6 7 7 7 7 8 8 9 9 10 9 9 10 10 10 10 8 9 10 9 8 8 8 8 8 9 10 10 10 10 12 15 15 17 23 15 11 9 6 6 7 7 8 7 7 7 10 13 20
5 6 6 6 7 6 6 5 6 6 6 6 6 6 5 6 5 4 5 6 6 6 6 6 7 8 6 6 7 7 7 8 9 9 10 10 9 10 9 9 10 11 10 10 10 9 9 9 9 10 11 11 11 12 12 13 13 13 12 12 21 12 8 7 7 6 6 7 8 8 9 7 6 6
4 6 6 6 6 6 6 6 6 5 6 6 5 5 6 5 6 5 4 6 6 6 6 7 6 6 6 6 7 7 8 8 8 8 9 9 11 11 13 15 10 8 10 11 10 10 9 9 14 23 18 11 12 12 10 8 8 8 11 11 13 10 14 12 9 7 6 7 6 6 7 8 7 6
5 6 6 6 7 7 6 6 6 6 6 6 6 6 5 5 5 8 8 9 7 7 6 6 6 6 6 6 6 7 7 8 8 8 9 9 10 11 12 9 9 10 9 10 10 11 11 12 13 11 10 10 9 9 11 10 10 10 10 10 7 8 12 14 14 13 10 8 7 7 7 6 5 5
5 6 7 7 5 5 6 6 6 6 6 6 6 6 6 6 5 6 5 6 6 5 6 6 6 6 6 6 6 7 8 8 7 8 9 10 9 10 10 9 9 9 9 10 10 10 10 10 10 10 10 8 9 9 10 11 10 10 9 8 8 8 8 12 12 12 16 20 18 12 8 6 4 4
6 6 6 6 6 6 5 6 6 6 6 7 6 5 6 6 6 6 5 6 6 6 6 6 6 6 6 6 6 7 7 7 6 8 9 10 10 9 10 10 11 9 9 9 10 10 11 10 9 8 9 10 9 8 9 11 11 9 7 8 7 7 8 7 7 8 10 14 20 20 21 20 17 16
5 6 6 6 6 6 6 6 6 6 6 6 6 6 6 6 6 6 6 6 6 6 6 6 7 6 6 6 6 7 7 8 7 7 8 9 9 10 10 9 10 10 10 10 10 9 9 9 9 7 7 9 8 8 9 10 11 9 8 8 8 7 7 6 7 7 6 6 13 19 18 18 18 17
Wind_Direction
8 354 344 338 324 315 333 344 338 328 319 314 311 307 309 316 314 315 314 308 311 311 316 314 341 15 343 328 329 323 321 324 326 321 318 315 314 309 312 312 312 313 311 311 310 308 306 304 303 302 301 300 299 297 295 293 291 290 290 289 288 287 285 285 284 285 284 282 283 285 285 282 279 279
11 339 344 325 327 310 336 325 323 319 315 320 318 319 322 323 300 295 301 299 300 298 298 300 316 331 332 326 323 326 320 318 321 318 320 323 319 320 321 319 315 311 308 307 307 305 303 302 302 302 300 300 298 297 297 296 293 291 290 289 288 287 286 284 282 282 282 282 281 280 280 282 280 276
359 335 336 325 323 315 329 331 331 331 335 322 321 315 309 304 287 288 289 297 289 301 304 310 5 322 324 337 324 321 321 324 335 333 327 324 321 321 317 314 310 307 306 305 303 303 302 302 301 300 300 300 300 298 297 296 295 293 290 288 287 286 285 285 284 283 281 281 281 279 278 278 279 278
352 355 340 321 317 318 353 344 332 325 312 311 318 313 310 307 306 298 296 282 287 300 301 304 334 337 329 338 324 322 334 334 334 326 321 319 319 316 310 308 311 312 311 308 305 304 302 301 300 299 300 300 299 299 300 299 298 296 293 289 286 286 285 284 283 282 281 280 279 279 278 276 275 274
2 352 334 314 314 339 6 330 318 312 310 318 318 329 337 324 320 319 298 292 293 294 293 300 321 353 330 321 337 325 324 329 319 314 318 317 314 313 312 312 312 311 308 307 306 303 302 302 302 302 302 301 299 299 300 301 301 299 296 293 290 288 286 284 284 282 281 279 278 278 278 276 273 273
336 350 321 316 318 340 353 319 313 307 316 316 335 329 317 306 305 305 307 292 291 292 305 306 331 332 334 312 330 325 319 321 320 315 314 314 311 311 310 306 303 303 306 306 309 311 311 310 310 310 309 306 305 303 302 301 300 299 298 295 292 289 287 284 282 282 281 280 279 277 275 275 274 272
322 335 326 314 328 338 332 309 305 309 309 332 331 320 321 311 305 300 293 299 294 295 293 302 316 332 336 315 319 319 312 311 308 306 311 313 312 307 303 300 301 313 319 318 316 314 311 311 312 311 309 309 308 308 306 305 303 301 300 299 296 292 289 285 282 280 279 278 278 277 275 274 273 272
324 320 334 315 327 326 319 306 308 308 328 335 335 327 315 308 309 312 312 301 294 298 299 302 318 325 324 308 306 310 306 306 312 313 311 309 303 304 307 314 322 320 318 318 319 321 322 320 318 316 313 311 311 311 308 306 303 300 297 296 296 294 292 287 284 281 280 279 279 278 277 275 274 273
325 323 307 308 317 317 310 301 305 309 338 339 335 314 312 320 315 314 314 306 302 296 293 298 305 315 305 299 302 312 315 317 312 308 304 303 305 307 312 317 310 310 312 315 319 319 316 315 315 315 313 310 307 307 309 312 312 309 303 298 294 291 290 287 285 282 280 278 277 276 275 274 274 272
310 298 291 292 305 305 300 299 300 332 344 334 318 315 315 311 309 306 302 297 294 291 289 296 304 313 317 314 306 315 317 318 316 309 302 297 301 307 307 299 299 302 312 315 310 308 308 309 313 316 317 317 313 311 311 311 312 314 320 322 318 303 292 290 287 283 280 278 275 274 273 273 273 273
295 291 289 288 287 288 286 294 318 331 323 316 306 305 308 304 305 307 308 310 307 303 301 300 299 305 311 312 309 312 312 303 301 306 310 307 303 296 294 301 302 306 300 298 301 304 312 316 317 319 319 316 315 314 313 313 313 313 314 315 314 316 315 306 295 289 285 282 279 277 276 275 275 274
292 291 288 281 279 281 285 301 309 307 300 295 289 294 298 306 308 308 309 309 309 307 304 301 306 306 307 309 301 304 308 304 293 287 301 304 309 305 297 296 305 302 296 298 294 297 300 300 306 309 306 307 307 307 308 308 310 311 312 310 311 312 311 310 306 301 295 291 287 284 283 282 281 280
297 295 290 287 286 289 298 303 304 302 301 300 297 288 291 301 300 297 294 290 296 300 298 300 301 301 303 304 309 311 310 309 306 303 298 292 293 295 298 293 283 289 296 295 293 293 290 293 288 288 291 297 302 300 301 302 304 307 309 310 311 311 309 309 305 301 301 299 293 289 287 286 284 284
290 292 297 301 307 308 309 310 309 307 305 302 301 300 299 292 286 280 283 287 285 290 289 289 299 300 298 299 303 301 301 300 296 294 294 292 297 298 293 287 283 289 287 297 302 300 302 294 289 288 291 293 296 294 295 290 298 303 306 308 309 309 309 308 306 300 295 294 294 292 290 289 288 285
298 296 298 308 312 310 309 306 304 308 309 307 304 302 300 300 300 303 299 291 288 285 284 279 288 284 290 296 295 295 293 293 293 287 285 291 297 294 301 303 295 228 299 304 299 295 300 297 294 294 293 295 292 293 293 303 307 306 305 304 303 305 305 305 304 302 299 296 293 291 289 288 287 285
292 296 303 299 297 300 300 299 307 308 306 307 307 307 305 303 300 296 293 294 293 285 283 286 281 285 288 289 291 288 292 291 285 281 284 289 287 291 290 289 296 309 311 300 303 298 305 292 290 297 298 295 293 304 311 312 311 309 307 305 305 304 303 301 300 298 296 295 294 293 291 288 286 285
287 298 299 297 295 297 302 305 300 295 293 295 300 302 298 292 286 286 288 287 286 290 288 286 285 277 281 282 278 278 281 281 284 286 283 282 281 282 280 286 288 300 314 304 298 297 311 307 300 295 298 298 301 304 308 307 306 307 307 307 307 306 305 303 299 298 298 296 295 294 292 289 287 286
286 290 289 293 293 289 289 291 293 290 283 281 278 276 263 258 263 269 274 282 285 282 278 273 273 277 269 268 275 277 278 283 283 284 282 279 279 276 273 279 287 300 308 302 306 296 305 304 299 294 292 295 295 296 299 304 305 306 308 308 308 307 304 302 302 300 295 294 296 297 296 293 288 284
269 271 276 278 279 283 283 277 289 291 288 283 278 273 272 270 265 261 261 265 250 255 255 257 265 273 271 268 274 274 275 271 272 273 275 277 277 279 283 285 287 291 292 286 284 287 304 296 289 287 291 289 287 288 290 298 306 308 308 308 308 309 308 304 308 316 312 303 296 293 291 290 289 287
258 255 255 260 268 267 272 284 295 296 294 285 283 283 283 286 289 283 277 282 286 286 285 279 271 275 284 289 290 291 289 285 283 280 281 283 289 294 295 293 295 282 278 263 276 286 290 292 287 289 289 291 292 294 294 306 308 308 308 310 314 316 314 315 315 313 312 313 315 315 309 298 286 281
264 262 260 259 265 274 266 281 294 297 300 294 300 312 312 300 291 289 296 308 310 308 305 303 302 301 302 302 305 308 310 308 308 309 305 300 302 294 291 282 286 285 295 271 261 280 289 291 290 293 300 306 303 306 304 301 304 305 311 316 315 314 314 314 313 312 312 312 311 311 311 308 303 294
255 254 271 276 277 277 271 277 290 299 312 319 317 301 296 304 309 310 314 309 302 300 297 297 300 302 303 304 304 305 302 301 302 299 295 300 300 294 291 294 293 294 293 290 295 282 283 299 301 302 302 300 283 287 294 302 305 316 315 310 309 309 308 310 311 312 313 313 312 312 311 310 307 305
249 252 260 273 277 278 282 291 302 311 316 308 303 314 313 309 307 309 310 301 298 309 321 313 311 304 303 303 300 296 299 302 303 296 290 292 285 285 286 288 296 293 288 295 352 312 304 306 301 310 310 294 288 279 300 314 317 305 305 311 308 304 306 309 312 313 312 312 311 312 312 312 308 301
253 249 243 259 281 287 292 302 310 312 310 312 314 313 314 313 302 301 295 309 321 320 315 309 308 304 305 305 305 307 309 308 307 306 305 305 304 299 298 295 292 289 293 295 326 303 299 296 296 316 311 312 308 317 314 295 289 296 302 302 298 303 307 309 310 311 311 311 310 310 310 310 311 304
251 248 249 248 273 288 298 306 307 307 312 313 316 325 305 291 297 311 325 328 327 318 312 308 307 307 309 306 304 304 305 306 311 312 311 310 309 307 306 303 297 289 287 290 306 301 300 307 296 305 295 282 286 296 296 296 292 289 292 288 293 299 304 304 304 302 304 306 308 308 308 308 306 304
239 252 269 259 278 292 301 305 305 311 313 316 327 308 304 310 317 326 345 329 319 313 311 311 309 310 312 316 318 317 314 311 311 315 313 312 311 308 305 304 304 300 297 300 303 297 292 287 288 294 291 293 284 281 294 292 292 296 290 287 290 293 296 297 298 299 302 302 303 304 302 303 303 302
269 264 255 247 286 301 302 305 310 312 316 325 310 309 316 320 325 342 334 318 313 310 312 312 311 317 321 321 320 320 322 325 325 322 318 314 309 303 298 294 291 291 293 296 295 289 284 280 282 280 285 283 286 292 285 290 299 305 294 291 290 286 287 289 290 292 295 296 296 298 301 300 300 300
251 247 216 252 289 299 307 310 310 314 317 312 311 313 317 325 339 341 319 309 308 308 308 309 310 313 316 315 317 322 321 319 319 315 312 310 310 307 302 295 286 279 276 276 275 276 275 275 276 274 274 277 281 285 287 281 287 291 294 300 293 287 285 280 281 282 283 289 290 293 294 295 293 296
252 252 262 279 294 306 309 308 310 314 311 310 308 313 320 333 340 316 303 303 305 309 309 310 310 310 316 319 314 316 315 313 312 308 305 301 293 291 288 289 289 284 280 277 274 271 270 271 273 274 271 266 270 271 271 278 289 293 293 299 300 301 292 283 281 279 280 278 280 284 285 289 292 291
257 259 267 283 300 306 302 301 300 288 296 306 310 316 320 319 308 298 301 300 302 300 307 307 310 309 311 310 307 303 301 303 306 308 305 309 310 317 316 312 306 303 300 294 289 284 277 271 268 269 269 267 265 270 271 282 283 279 284 287 288 292 283 282 276 273 276 280 281 282 282 282 283 286
265 271 276 275 277 288 301 305 306 306 307 306 299 292 295 294 292 290 272 277 290 301 300 302 301 306 303 300 303 307 309 309 309 313 316 315 313 314 316 311 302 300 297 291 289 290 291 288 281 272 273 272 268 266 273 274 278 279 281 280 280 277 288 293 287 283 278 276 276 275 273 275 277 272
209 177 215 275 309 313 299 297 301 289 281 278 291 295 295 293 289 292 303 305 296 285 284 293 303 303 307 307 305 305 309 311 314 317 313 314 312 318 316 311 310 312 309 308 304 304 308 304 299 289 275 271 274 275 272 269 270 274 278 277 274 272 273 275 283 284 281 280 279 273 273 273 273 275
146 155 211 220 283 292 276 281 281 285 290 287 282 290 293 290 299 309 310 299 293 289 297 303 306 303 301 302 301 308 311 313 315 314 312 314 312 311 308 303 308 315 317 314 315 313 306 305 304 305 297 284 270 269 273 276 271 272 274 273 276 276 276 275 272 276 285 287 277 277 277 268 263 267
164 190 205 218 253 272 270 271 273 276 277 284 297 288 295 305 307 295 289 292 291 291 297 294 298 296 296 299 307 311 311 310 311 315 321 314 315 312 313 312 308 307 305 304 307 312 315 311 304 297 291 284 273 260 259 262 266 272 269 272 271 273 275 276 276 274 275 271 278 283 279 274 268 266
190 198 231 261 258 258 253 255 258 267 272 277 286 291 293 289 292 297 295 289 290 296 296 294 285 285 292 302 310 310 311 313 314 317 315 310 311 308 308 306 306 306 307 308 310 311 310 311 313 310 305 301 295 269 231 233 258 263 268 272 271 273 278 279 277 279 275 276 269 269 275 280 275 261
201 228 242 257 248 247 253 254 255 254 260 270 271 280 299 295 286 287 291 291 297 295 293 293 293 296 304 304 303 306 310 313 314 317 319 322 319 314 308 301 303 301 301 301 303 308 311 310 314 313 312 315 315 314 316 259 252 255 276 289 292 287 283 282 280 279 277 274 266 264 271 276 281 277
207 204 224 232 241 233 245 249 248 253 251 259 264 260 266 283 288 281 282 300 289 285 290 297 299 300 300 302 303 305 311 315 316 319 318 319 316 311 310 308 303 303 304 302 303 305 308 306 305 305 311 315 317 318 307 315 309 304 293 297 295 292 290 291 293 288 281 266 266 258 260 266 271 277
219 208 228 237 238 238 238 243 244 255 254 253 259 267 263 264 276 283 290 293 289 285 292 292 288 295 295 299 309 311 313 313 312 315 317 317 317 317 315 312 310 310 308 304 306 303 304 300 304 306 310 311 314 312 311 314 310 308 308 300 290 290 291 288 287 285 291 284 265 270 262 263 263 265
203 218 227 235 240 232 238 243 235 248 250 253 258 261 270 270 274 283 289 285 286 288 288 289 288 290 301 307 307 312 312 317 321 319 319 317 314 313 311 312 308 307 309 308 309 306 306 301 299 301 304 306 300 299 301 299 298 297 303 299 290 293 302 298 294 305 303 307 308 288 260 253 266 271
213 210 223 226 238 233 238 239 243 241 249 250 252 254 259 274 276 279 286 289 286 282 285 292 300 302 299 305 310 306 303 308 315 316 315 314 311 313 314 316 316 313 309 305 310 311 310 305 308 306 304 304 297 293 291 286 278 277 284 304 317 329 345 356 356 354 349 351 339 329 323 319 321 303
209 218 230 221 229 231 235 237 237 243 249 253 256 264 264 267 277 275 269 272 276 299 302 293 290 293 297 307 307 307 310 313 312 312 313 311 313 318 319 321 310 308 308 306 307 304 310 314 309 314 317 307 300 291 286 285 302 316 319 312 312 356 6 12 0 5 352 352 341 329 322 320 315 333
207 224 231 224 222 231 226 237 239 241 252 253 255 257 264 268 263 284 290 296 297 287 283 288 290 294 298 300 303 308 308 309 309 311 315 315 315 314 314 314 310 313 311 306 310 309 309 310 312 314 311 309 306 318 319 317 312 314 311 312 312 4 358 5 7 18 21 3 343 338 344 328 318 347
227 226 233 232 227 229 231 236 240 235 249 248 252 255 264 272 278 282 282 283 279 283 280 287 289 291 294 296 300 308 303 299 306 311 314 314 310 311 313 311 307 306 304 301 298 303 309 312 312 318 317 312 321 320 318 322 318 307 309 326 350 344 338 356 353 10 28 30 26 27 20 6 324 347
227 233 237 231 231 236 233 233 240 239 241 246 251 254 255 261 268 268 268 273 278 279 285 284 289 292 291 294 302 298 294 292 304 315 315 311 311 308 309 308 308 305 304 303 308 310 313 312 311 319 322 325 322 323 327 325 317 317 329 333 336 345 344 340 334 356 14 23 19 27 36 41 42 43
234 232 234 235 231 234 234 232 235 240 239 245 250 249 255 256 262 268 266 265 269 277 281 284 286 287 288 292 301 299 297 304 310 309 307 306 305 304 303 303 307 307 309 311 308 305 310 313 315 318 317 319 321 326 323 318 318 322 336 336 337 343 344 337 344 350 358 9 3 13 31 33 35 34